Wind_Speed
17 22 26 30 31 31 33 33 32 34 36 36 38 37 34 34 34 33 34 35 33 31 31 30 29 27 26 24 22 23 24 21 19 19 18 18 20 20 17 17 14 13 17 18 17 17 14 10 10 9 9 9 9 7 7 6 6 8 7 6 6 7 7 8 8 8 7 8 6 2 4 5 6 8 10 12 13 13 13 13 14 16 15 14 13
16 18 22 27 29 30 31 33 33 34 35 36 39 38 36 34 34 34 35 36 34 33 33 31 30 29 27 26 24 23 24 23 20 19 20 18 18 21 19 18 16 13 16 18 17 17 16 12 11 11 10 10 9 8 7 6 6 8 8 7 7 7 7 9 9 7 7 9 7 3 2 4 5 6 8 11 13 13 13 16 17 17 18 16 15
16 16 18 24 29 30 29 31 33 34 36 36 38 39 37 35 33 33 35 36 35 33 33 32 31 30 28 26 25 23 23 25 21 18 20 19 17 20 21 19 17 15 15 18 17 17 17 15 13 12 12 10 10 9 8 7 7 8 8 7 7 7 6 8 9 7 7 8 7 3 1 2 2 5 8 9 12 13 14 18 19 19 20 18 16
17 17 16 19 27 29 28 30 31 33 35 34 37 38 37 37 36 35 35 37 37 34 33 32 30 30 27 24 24 23 22 23 21 18 18 20 19 20 22 20 18 16 16 18 18 18 18 18 15 14 13 11 11 11 9 9 8 9 9 8 9 9 8 8 9 9 7 6 6 2 2 3 0 6 9 8 11 14 14 18 19 19 20 20 17
18 19 17 16 21 27 29 31 30 32 35 35 38 38 36 38 39 37 37 37 38 36 34 32 29 29 27 24 22 22 23 24 23 22 20 20 22 24 24 21 19 17 16 18 19 19 18 18 18 16 15 13 13 12 10 10 9 10 11 11 10 10 9 9 9 10 9 6 6 4 3 2 2 4 5 5 8 13 14 18 21 20 19 20 19
18 20 19 16 18 24 29 31 30 31 35 36 40 39 36 38 39 38 38 37 38 38 36 33 30 30 30 27 26 24 25 28 27 27 26 23 22 25 25 22 20 17 17 19 19 20 19 18 19 17 16 15 14 13 11 11 10 10 12 12 11 9 10 11 10 10 10 7 6 6 3 2 3 4 4 2 3 9 17 22 22 19 18 20 20
16 17 19 18 18 21 25 30 31 31 34 36 38 39 37 36 38 39 39 37 38 38 38 36 32 33 32 31 30 26 25 29 30 29 29 26 23 24 25 23 21 19 19 20 20 20 20 19 19 18 17 16 15 14 12 12 11 10 11 12 12 10 10 13 11 10 11 8 6 6 3 1 1 4 4 3 3 6 16 22 20 17 15 16 19
16 15 18 18 18 20 25 31 33 32 34 35 36 38 38 38 37 39 39 37 38 39 40 38 34 34 34 31 31 29 26 28 31 29 27 27 24 23 25 25 23 22 22 22 21 21 21 21 19 18 18 16 15 14 12 12 11 10 12 12 12 12 12 13 12 12 12 10 10 9 5 2 2 4 3 4 4 3 8 13 17 16 13 14 15
18 17 19 19 18 23 28 31 33 32 34 35 36 38 38 39 38 38 38 37 38 39 40 40 37 35 35 33 30 30 27 26 29 30 26 26 26 24 25 27 26 24 23 23 23 22 22 22 20 20 20 17 16 15 13 13 12 12 13 14 14 14 14 13 11 14 13 10 13 12 7 5 4 3 3 4 5 4 3 5 11 13 11 13 15
17 18 18 19 22 27 29 30 32 32 34 35 36 36 37 37 38 38 38 37 38 40 41 41 39 36 35 34 32 30 28 24 26 30 28 25 27 27 26 28 29 26 24 25 25 24 24 23 21 21 22 20 17 15 13 14 14 14 14 15 15 14 15 13 10 13 13 10 13 14 10 7 5 3 3 4 5 4 3 4 12 14 11 13 15
16 17 17 19 24 29 29 30 32 32 33 35 35 35 37 36 37 39 39 38 38 40 41 41 40 38 37 36 34 32 30 27 25 30 31 27 28 30 28 28 30 28 25 25 26 26 25 25 23 22 22 22 20 17 15 15 15 15 15 16 16 14 14 14 11 12 12 11 14 15 13 10 7 7 7 6 5 4 3 2 9 15 15 15 14
16 16 16 17 19 23 26 28 32 32 32 35 36 36 37 37 38 39 38 38 38 40 41 41 40 39 38 37 36 33 32 31 28 30 33 31 29 31 30 29 30 30 27 26 27 28 27 27 25 23 23 23 22 20 16 15 16 16 16 16 16 14 14 15 14 12 11 13 15 13 13 13 11 10 9 7 7 6 6 4 4 9 11 13 12
17 15 15 15 15 17 20 24 30 32 32 35 37 37 37 39 39 39 40 39 39 40 41 41 41 40 39 37 37 35 33 33 32 30 33 34 31 30 30 30 30 31 31 29 29 29 28 28 27 25 25 25 23 21 19 17 16 16 17 17 17 15 15 15 16 14 12 14 15 11 12 15 13 11 10 8 7 7 8 7 5 5 8 10 11
16 16 15 15 16 17 19 23 29 31 32 35 37 37 37 38 40 41 41 41 40 40 42 42 42 41 40 39 38 37 35 34 34 32 33 34 33 32 31 31 31 32 33 32 30 29 29 29 28 27 26 25 23 22 21 20 18 17 18 18 18 17 17 17 16 15 13 14 15 12 12 17 15 11 12 11 9 10 11 10 6 3 7 12 11
16 17 17 17 18 19 21 25 28 31 33 33 35 37 37 38 40 42 41 42 41 40 42 43 43 42 41 40 39 38 37 35 35 34 33 34 34 34 32 31 31 31 32 32 30 28 29 29 28 27 26 25 23 23 23 21 20 19 19 19 20 18 17 18 17 16 15 16 17 14 13 17 17 12 13 13 12 13 15 14 10 3 4 7 7
16 16 17 18 18 19 23 26 29 32 33 32 33 36 37 38 40 42 42 43 43 41 42 44 44 43 41 41 39 39 38 36 35 34 33 34 35 35 34 32 32 31 30 31 30 28 28 29 29 28 27 26 24 24 23 22 21 21 20 20 21 19 18 19 20 18 17 18 19 17 15 17 18 14 14 15 14 15 16 16 16 11 6 3 3
18 17 17 17 17 19 24 27 29 32 34 35 36 37 37 37 38 40 40 41 42 41 42 43 43 42 41 41 40 39 39 37 37 36 35 34 34 35 35 33 32 31 30 30 30 29 29 29 30 29 28 28 26 25 25 24 23 23 22 21 21 21 19 19 22 21 18 18 20 20 19 19 19 16 15 17 16 16 16 16 18 18 13 7 3
18 18 17 17 17 18 23 29 31 35 38 39 38 36 36 36 37 39 39 40 41 41 41 41 42 43 42 42 42 41 41 40 39 39 37 34 33 33 34 33 32 32 31 30 30 29 29 30 31 31 30 30 28 27 26 26 25 24 24 23 22 22 21 20 22 22 20 19 20 21 21 22 21 18 15 16 17 17 16 16 18 19 18 13 8
16 17 16 16 17 18 22 28 32 36 38 38 36 34 34 36 37 39 40 41 42 41 40 39 39 41 42 44 45 43 43 42 40 38 37 35 34 32 32 33 33 31 31 31 31 30 30 31 32 32 31 31 30 29 28 27 27 26 26 26 24 23 22 22 23 23 21 21 21 21 22 23 24 21 17 13 15 18 18 17 18 18 18 18 15
16 16 17 17 18 20 25 30 32 35 35 35 35 35 36 37 37 39 40 40 40 39 38 37 37 38 40 42 44 44 43 42 40 39 37 37 36 34 33 33 33 33 31 31 32 33 33 32 33 33 32 32 31 31 30 29 29 28 28 27 27 26 25 24 24 24 24 23 23 23 22 24 24 23 21 16 13 17 19 19 19 19 18 19 19
17 16 17 17 17 20 27 31 32 33 34 35 35 35 36 37 38 39 40 39 40 40 39 39 38 38 39 40 41 43 42 41 40 39 39 39 38 36 35 33 32 33 32 31 31 33 34 34 33 33 33 33 32 32 31 31 31 30 30 29 28 28 27 26 26 27 27 26 25 25 24 24 24 24 24 21 16 16 19 20 21 21 21 20 20
19 17 17 17 17 18 23 27 29 29 31 34 35 34 35 37 38 39 39 39 40 40 40 40 39 39 40 40 40 41 41 40 39 39 39 39 38 37 36 34 33 33 34 34 33 32 34 35 34 34 34 34 33 33 32 32 33 32 32 31 29 29 29 28 28 28 29 29 27 27 27 25 24 24 25 24 21 18 19 22 23 23 24 24 23
19 18 17 16 16 17 21 24 26 27 29 33 34 34 35 37 38 37 38 39 40 41 41 41 39 40 40 40 40 40 40 39 38 39 39 38 38 38 37 35 35 34 34 35 35 33 33 35 36 35 34 35 34 34 34 34 34 34 34 33 32 31 31 31 31 30 31 31 29 29 29 28 26 25 26 27 26 23 22 22 24 25 25 25 25
19 17 15 16 15 15 17 18 21 25 28 31 32 32 34 34 34 35 37 39 40 40 41 41 40 40 40 40 40 40 40 40 39 39 39 38 37 37 37 37 36 35 34 35 36 35 34 34 36 37 36 36 36 36 36 36 36 36 36 35 34 33 33 32 33 33 32 32 32 31 31 30 29 28 27 29 29 28 26 25 25 26 27 27 26
19 18 15 17 16 15 15 14 17 23 27 30 31 30 31 31 31 32 35 37 39 39 40 41 41 41 40 40 40 40 40 41 41 39 39 38 37 36 37 37 37 36 35 35 35 36 36 35 36 37 38 39 38 38 38 38 38 38 37 37 36 35 34 34 34 34 34 34 34 34 33 32 31 30 29 30 31 32 31 29 27 28 29 29 28
20 20 18 17 16 15 16 14 17 23 26 28 30 30 30 30 31 31 32 35 37 38 39 40 41 41 40 41 40 40 40 41 42 41 39 39 38 36 37 38 38 37 36 35 35 36 37 38 38 38 39 40 40 39 39 39 39 38 38 37 37 36 36 35 35 35 36 36 36 36 35 33 33 33 33 32 33 33 34 33 31 30 30 30 30
18 19 18 17 16 16 17 16 17 23 26 27 29 30 31 31 31 32 32 33 35 37 38 39 40 40 40 41 42 42 42 42 42 42 40 39 39 38 38 38 39 38 36 36 36 37 38 39 40 40 40 40 41 41 40 40 39 38 38 38 37 37 36 36 36 36 37 37 37 37 37 36 36 36 36 36 35 35 35 35 34 33 31 31 31
16 18 18 18 17 16 17 16 17 22 25 27 29 31 33 32 32 33 33 33 35 36 37 37 38 39 41 42 43 43 43 42 42 42 41 40 40 39 38 38 38 39 38 38 37 38 39 40 40 41 41 40 40 41 40 40 39 39 38 38 38 37 37 37 36 37 38 39 39 39 39 39 39 39 39 39 38 37 36 35 35 34 32 32 32
15 17 17 17 15 15 16 16 16 20 24 26 29 31 32 32 32 34 35 35 35 36 37 37 37 39 41 42 42 41 42 42 41 41 42 41 40 40 39 38 38 39 40 39 38 38 39 39 40 41 42 41 40 40 41 40 41 40 39 39 38 38 38 37 37 36 37 38 40 40 40 41 41 41 40 40 40 40 38 37 36 35 33 32 33
14 14 15 15 15 15 15 15 15 17 22 25 27 30 31 31 32 34 35 35 35 36 37 37 37 38 40 41 41 40 40 40 40 41 43 42 41 40 39 39 39 40 40 40 39 38 38 39 40 40 40 40 40 40 41 42 42 42 41 39 38 38 38 38 38 37 37 38 39 41 41 42 42 42 41 41 41 41 41 40 39 37 36 35 34
13 13 12 13 13 13 13 14 14 17 22 24 25 28 30 30 31 32 34 35 34 35 37 37 37 37 39 39 40 40 39 40 41 41 42 43 41 40 40 39 39 39 39 39 40 39 38 38 39 40 39 40 41 41 42 43 43 43 42 40 39 38 39 39 39 38 38 39 39 40 41 41 41 42 42 42 42 42 42 42 40 39 39 39 37
12 12 11 11 12 13 13 14 14 17 22 23 23 26 28 29 30 30 32 34 34 34 36 38 37 37 39 39 39 40 39 40 41 41 41 42 42 40 39 39 39 39 39 39 40 40 39 38 38 40 40 40 42 43 43 43 44 45 44 43 40 39 39 39 39 39 39 39 39 39 39 39 40 41 42 42 43 43 43 43 42 41 41 41 41
9 10 9 10 10 10 11 12 14 17 21 23 24 24 26 29 31 30 31 33 34 33 33 37 38 38 39 40 39 39 39 39 41 41 41 40 40 40 39 39 40 39 39 40 40 40 40 38 37 38 40 42 42 44 44 45 45 46 46 45 43 40 39 39 40 40 40 39 39 38 38 38 38 39 41 42 43 43 43 43 43 43 43 43 43
7 7 6 8 8 7 9 11 14 17 19 20 22 22 25 28 30 30 31 32 33 32 32 35 38 38 39 40 40 39 39 39 39 40 39 38 39 40 40 39 39 39 39 39 40 39 40 40 39 38 39 42 42 43 45 46 46 46 47 47 46 42 40 40 40 41 41 40 39 38 37 38 38 39 40 41 42 42 42 43 44 45 45 44 44
7 8 6 6 7 6 6 7 9 13 15 17 18 19 21 24 27 29 30 30 31 31 30 33 37 38 38 40 41 40 39 39 38 38 38 38 38 39 39 39 38 39 40 39 39 39 40 41 41 39 38 40 42 43 45 46 47 47 47 48 47 44 41 39 40 40 41 40 40 39 39 39 39 39 40 40 41 41 41 42 45 46 47 46 45
9 9 8 8 9 9 7 7 7 4 9 16 19 19 18 20 22 25 25 27 30 30 30 32 35 37 38 39 40 40 39 38 37 36 36 37 38 38 39 39 38 37 38 38 38 39 40 40 41 40 39 39 39 40 43 45 46 46 46 47 48 45 41 39 39 39 39 39 39 39 39 39 40 40 40 39 40 40 41 41 43 45 47 46 47
11 11 11 12 12 12 10 10 10 9 4 3 11 17 20 19 20 21 21 22 25 27 29 30 33 37 37 38 39 39 38 38 37 36 36 37 38 38 38 38 37 36 35 36 38 39 39 39 39 39 41 40 38 36 38 41 44 44 45 46 47 45 42 40 40 38 37 38 38 39 40 40 40 40 40 40 39 39 41 42 42 42 43 44 47
11 10 12 15 13 12 12 11 10 10 10 8 5 6 13 18 20 22 21 21 21 24 27 28 30 35 37 36 38 38 38 38 37 37 37 36 36 36 36 36 36 36 35 35 36 36 36 36 37 38 39 40 38 35 34 34 37 41 44 45 45 43 42 41 39 37 37 37 38 39 40 41 41 40 39 39 39 39 41 42 41 40 39 42 46
12 12 12 14 13 12 13 13 13 13 13 12 11 8 5 11 17 22 23 22 23 24 25 25 27 31 35 36 36 38 38 37 38 38 36 35 35 34 34 34 34 34 34 33 31 31 32 33 34 36 37 37 36 35 33 32 31 34 40 44 44 42 41 40 38 36 37 38 39 39 39 41 42 41 39 39 39 41 43 42 41 39 38 41 45
14 16 17 18 17 15 14 15 16 17 16 16 16 15 10 6 9 15 20 24 27 28 26 24 24 27 33 36 36 37 38 37 37 36 34 33 33 32 31 31 32 32 32 31 30 29 29 31 32 33 34 34 33 33 32 32 29 28 33 40 42 42 40 38 37 37 38 39 40 38 37 38 39 39 40 40 40 42 44 44 42 40 41 44 44
14 18 20 19 18 17 16 17 19 18 17 17 18 17 15 12 8 7 10 14 22 28 29 26 25 26 30 34 35 36 37 36 35 34 33 31 31 31 30 30 30 29 29 29 29 29 28 28 29 30 30 31 31 30 30 29 29 27 28 33 40 43 40 37 36 37 38 38 37 36 35 35 35 36 37 40 42 44 44 44 45 46 47 47 44
16 19 20 18 16 16 17 17 17 17 17 18 17 16 16 15 10 7 6 6 9 22 31 30 27 27 29 32 34 34 34 34 33 32 31 29 29 29 29 29 28 28 28 28 29 29 28 27 26 27 28 29 29 29 28 27 27 27 28 30 36 40 40 37 35 36 36 36 34 34 35 36 36 36 36 37 40 43 44 46 48 50 50 48 45
15 17 18 17 14 13 14 14 15 14 14 15 15 16 16 13 10 10 7 6 6 14 29 32 30 30 30 32 33 33 32 32 31 31 30 28 27 28 27 27 28 27 26 27 27 27 27 26 24 24 25 26 27 27 27 27 27 28 30 32 34 36 37 38 37 35 36 35 34 34 35 36 36 36 36 36 37 38 42 46 49 50 50 48 47
13 15 17 17 14 11 10 11 12 13 13 14 14 13 13 11 11 13 10 7 6 5 20 29 30 30 30 31 32 32 32 31 29 29 29 27 26 27 26 27 28 27 26 25 25 26 25 24 23 22 22 22 23 24 25 27 29 30 31 33 34 34 35 37 38 38 38 36 34 34 35 36 36 36 37 38 38 38 40 43 45 47 49 49 48
13 14 17 16 13 11 11 11 13 14 14 17 16 13 13 14 13 13 11 8 8 2 11 20 24 25 27 29 30 30 29 29 28 28 28 27 26 26 25 25 26 26 25 24 22 23 23 22 22 22 21 20 19 19 20 23 27 30 31 31 32 34 35 37 39 40 37 33 32 33 34 36 37 37 38 39 39 40 41 41 42 44 46 50 50
11 12 15 15 13 12 11 11 13 14 14 16 16 14 14 15 15 14 12 9 7 3 6 13 17 19 22 24 26 26 26 26 26 27 27 27 26 25 24 24 25 25 24 23 21 21 21 21 21 20 21 20 18 16 16 17 19 22 25 28 31 34 36 38 40 40 36 31 29 28 28 29 31 31 32 34 36 38 39 41 43 44 46 50 51
10 9 11 13 11 9 9 9 10 13 14 13 13 14 16 16 15 15 12 8 6 4 7 12 14 16 19 22 23 23 23 23 23 24 25 25 24 24 24 24 24 24 23 21 20 20 20 20 20 20 20 19 16 13 11 9 9 11 13 16 20 24 28 30 33 35 35 34 33 31 29 28 27 27 28 30 32 33 35 37 40 42 45 49 50
13 11 10 10 9 8 7 7 8 10 12 13 12 14 16 16 15 14 12 8 5 4 6 11 15 16 18 21 22 22 22 22 20 19 19 21 23 24 24 24 23 23 22 21 21 20 19 18 19 20 19 15 11 10 9 7 6 5 3 3 4 6 10 14 17 21 24 27 30 32 32 33 33 33 34 35 37 38 38 38 39 41 43 46 48
12 11 8 7 8 8 7 7 7 8 9 10 12 13 16 17 16 14 13 9 3 2 3 7 11 14 16 18 20 21 21 20 17 14 13 13 16 19 20 19 19 20 21 21 21 19 16 14 13 12 14 15 13 11 9 7 6 4 2 1 1 2 4 6 9 11 14 16 19 22 24 28 30 32 34 36 39 39 38 39 40 41 42 43 44
11 11 7 6 6 7 6 6 7 7 8 9 10 11 13 16 16 15 13 9 4 2 3 4 6 8 12 15 16 16 18 19 19 19 17 15 12 12 14 14 12 14 18 19 18 16 14 13 13 12 12 13 13 11 8 7 6 4 3 2 3 4 6 7 9 11 13 14 16 17 18 20 22 23 25 28 32 32 32 34 37 39 40 40 41
10 9 5 5 5 5 6 7 7 7 8 8 9 9 10 14 16 15 12 8 5 8 9 8 7 6 10 14 14 13 16 20 22 22 24 25 24 22 20 19 16 14 14 14 15 15 14 13 13 14 14 13 12 11 9 9 7 5 4 2 2 2 4 5 6 7 8 9 11 13 15 17 19 20 22 25 28 29 30 31 33 35 36 37 39
Wind_Direction
186 190 184 178 179 176 175 177 174 172 174 177 178 179 179 179 178 177 178 181 184 182 178 178 180 181 183 186 186 185 188 191 194 197 195 197 201 202 207 206 204 199 192 190 188 184 182 191 199 194 197 201 198 205 206 202 200 193 190 191 184 176 181 178 172 178 173 163 165 172 158 152 145 149 163 165 162 168 170 171 167 162 162 157 147
178 187 187 179 177 175 173 174 173 173 174 176 177 179 179 179 179 177 177 180 184 183 179 179 181 182 184 187 186 183 187 194 196 194 195 200 202 201 204 204 203 203 198 194 195 191 185 192 205 203 206 204 199 208 211 198 189 187 186 187 183 174 184 182 176 185 176 164 166 162 168 175 173 180 182 178 175 173 176 177 171 166 167 159 150
176 182 188 181 176 176 174 174 175 174 174 174 176 179 180 180 180 178 177 179 183 183 181 182 184 186 186 187 189 187 188 195 197 192 193 200 205 204 202 203 205 206 204 199 199 198 192 192 201 208 214 210 203 208 210 198 186 185 185 186 183 179 188 186 184 193 182 176 171 146 204 184 213 235 213 200 192 180 174 170 162 161 166 162 155
176 179 188 183 175 177 178 177 177 173 173 174 174 177 180 183 183 180 179 180 182 184 183 182 184 187 188 188 191 194 194 195 199 197 191 196 206 204 200 202 207 208 207 202 201 203 198 195 201 210 213 211 209 210 208 205 201 195 195 198 187 181 192 194 196 202 191 181 178 159 152 138 344 246 226 224 204 187 175 165 158 156 161 164 162
174 177 186 187 177 177 178 179 177 172 174 176 175 177 179 184 186 185 182 182 183 185 184 181 182 186 187 188 190 191 192 193 199 203 197 197 201 200 199 201 205 208 208 205 204 206 203 199 205 212 211 211 214 213 210 209 209 203 201 203 189 180 194 195 195 203 196 189 189 166 110 137 231 210 200 226 202 188 175 158 156 157 159 165 168
175 175 182 188 181 175 175 178 177 174 177 179 179 179 179 181 184 185 184 183 184 185 185 183 182 184 185 187 190 187 186 189 195 199 199 199 197 196 198 201 205 209 209 208 206 206 206 204 206 212 213 213 214 215 214 208 206 206 203 201 191 186 195 193 196 201 192 187 184 167 149 217 224 157 149 206 176 169 167 156 153 155 157 164 170
176 176 180 185 182 176 174 178 179 178 178 179 180 181 181 181 181 182 182 183 184 185 185 184 184 186 186 187 192 191 187 189 193 195 197 198 196 196 197 200 206 211 210 210 210 208 208 208 209 212 213 213 212 215 217 209 205 205 202 198 192 189 193 193 194 183 176 187 190 183 203 282 148 147 158 176 116 132 156 155 155 158 158 165 173
177 178 180 184 183 177 177 181 184 182 178 178 180 182 184 184 182 181 182 182 183 185 185 186 186 187 188 188 193 197 193 190 192 194 195 197 198 197 198 201 207 212 212 211 210 209 209 210 211 211 212 213 212 215 217 206 201 202 198 196 194 195 198 197 194 185 184 196 199 196 214 227 142 127 137 156 137 120 146 152 160 168 174 177 177
178 180 180 184 183 180 179 182 184 183 180 180 181 183 185 186 186 184 183 184 184 186 186 188 189 188 189 190 193 199 199 193 192 193 194 196 199 200 201 203 206 211 212 210 210 210 209 211 211 209 210 214 213 214 217 206 202 205 199 194 194 199 204 199 194 200 200 195 194 194 195 198 164 111 113 139 130 140 155 152 166 173 183 186 183
179 181 181 183 183 182 182 181 182 182 181 181 181 183 185 187 188 187 187 187 186 187 188 189 191 191 191 192 194 198 199 195 192 192 193 197 200 202 204 204 204 208 209 208 210 210 209 211 212 209 209 214 215 213 214 206 201 203 199 195 197 203 206 200 194 200 199 194 196 191 179 183 176 156 176 158 127 137 154 162 176 180 187 194 191
179 180 180 183 182 182 181 180 181 182 180 180 180 182 184 186 188 188 189 189 188 189 189 190 192 193 193 194 195 196 197 196 192 190 193 198 200 201 205 205 203 205 207 207 209 210 209 210 214 213 210 213 216 215 213 205 198 198 197 196 201 206 205 199 195 196 194 195 200 193 182 183 183 187 197 188 170 162 159 166 180 181 185 194 193
177 177 177 179 180 179 180 179 180 181 179 178 179 181 183 186 188 189 191 191 190 189 190 191 192 193 195 196 196 196 196 197 196 192 194 198 200 199 201 204 203 204 206 205 207 210 210 210 213 214 212 212 214 214 214 206 199 199 198 199 202 204 203 200 198 197 189 187 193 194 190 189 189 194 204 203 199 198 194 200 194 181 183 191 187
174 175 175 176 178 179 179 177 178 181 181 179 180 181 183 186 188 189 191 193 192 191 191 191 193 195 196 196 197 197 197 198 199 198 196 198 200 199 200 202 201 202 203 204 205 207 210 210 211 213 212 212 211 211 211 208 203 202 201 202 202 200 199 201 203 204 192 181 185 192 196 194 192 199 212 215 211 207 200 203 220 201 176 179 184
174 173 175 176 179 180 179 177 178 182 183 181 182 183 184 186 188 190 192 193 194 193 193 193 194 196 197 198 198 198 198 199 200 201 200 200 201 202 202 202 201 202 203 205 205 206 210 211 212 213 212 212 210 208 209 209 207 206 205 203 203 202 202 202 206 209 202 188 186 192 198 195 192 201 213 218 217 206 197 197 209 198 166 171 182
173 173 176 177 179 178 178 178 179 182 183 183 184 185 184 186 188 191 192 193 195 195 194 194 195 197 198 199 199 199 200 200 201 203 202 202 202 203 205 204 202 203 204 206 205 205 210 212 213 214 213 212 211 208 210 210 207 207 208 205 205 206 204 203 206 210 206 197 192 195 202 197 194 203 212 216 224 218 211 209 207 184 154 174 186
172 174 177 178 178 178 178 179 180 182 183 184 186 187 186 187 189 192 193 193 195 196 196 196 197 197 198 199 200 201 202 202 203 204 204 205 204 203 205 206 205 205 204 205 205 205 208 211 213 214 213 212 212 211 211 211 207 206 208 207 207 207 205 203 205 209 209 202 197 199 205 202 200 209 217 216 223 226 227 223 214 203 178 165 198
173 174 177 177 178 180 182 182 180 181 185 188 190 190 188 187 188 191 193 194 196 198 199 198 197 197 198 200 201 202 203 204 204 205 205 206 206 205 206 206 207 207 206 204 205 206 208 211 213 214 213 211 212 213 213 212 210 209 208 206 205 206 207 204 205 210 212 207 204 204 209 211 209 214 219 218 222 229 230 226 220 215 201 178 177
173 172 175 176 178 180 183 184 183 184 188 191 191 190 189 188 188 189 191 194 198 200 202 201 199 198 198 199 201 203 204 205 206 206 206 206 206 206 206 207 207 208 208 207 206 207 209 211 213 213 212 211 211 212 212 213 213 213 211 208 205 205 208 207 207 211 212 208 208 209 213 216 216 218 218 218 223 227 227 221 219 220 216 204 189
169 170 176 178 178 180 181 184 186 188 190 191 189 188 188 189 189 190 193 196 198 201 204 205 203 200 200 200 202 203 205 206 207 207 207 206 207 207 206 207 207 208 209 209 208 209 210 212 213 212 212 211 211 212 212 212 214 214 213 211 209 206 208 209 209 212 211 208 208 211 215 218 219 222 222 222 226 224 221 215 211 215 218 218 211
168 171 178 179 179 181 181 183 186 188 189 189 188 188 188 189 189 191 194 196 198 201 204 207 207 205 204 203 203 204 205 206 207 207 207 208 208 208 207 207 207 207 208 209 210 210 210 211 213 212 210 209 209 210 212 212 212 213 214 214 212 209 209 211 211 212 212 210 210 212 216 219 220 224 224 224 228 224 219 216 212 211 213 219 221
173 174 177 178 179 182 182 183 183 185 186 187 189 189 187 188 189 191 192 194 197 201 204 207 208 208 208 207 206 206 206 206 206 207 207 208 208 208 208 208 207 207 206 207 209 210 209 210 211 211 210 209 208 208 210 211 210 211 213 214 214 211 211 212 213 213 213 213 214 214 216 220 223 228 227 225 228 227 222 221 221 219 217 219 222
177 176 176 177 178 181 182 181 180 181 183 186 188 189 188 189 190 190 190 193 196 199 203 206 208 209 210 210 209 208 208 207 206 206 207 208 208 209 209 208 208 208 208 208 209 209 209 209 209 209 209 208 208 208 209 210 209 210 211 212 213 213 213 213 213 215 214 214 217 216 217 218 221 228 230 227 228 228 224 223 223 224 223 222 223
180 176 174 176 177 179 179 177 177 180 182 184 186 188 189 190 190 189 190 193 196 199 202 205 207 209 210 210 210 210 209 208 207 207 208 208 208 208 208 208 209 209 209 210 210 210 209 208 208 208 208 208 209 210 209 210 211 210 210 210 211 212 213 214 213 214 215 215 216 218 219 218 218 224 230 229 228 229 228 226 224 225 226 225 225
180 178 173 176 176 175 177 176 177 181 184 186 188 190 191 190 189 189 191 194 196 199 201 204 206 209 210 210 210 209 208 208 208 208 209 208 208 208 208 209 210 210 210 211 211 211 211 209 209 208 209 209 210 211 211 211 213 213 212 211 210 211 214 216 215 215 215 215 216 218 220 219 219 221 226 228 229 230 230 229 227 226 227 227 226
174 174 170 174 176 174 177 177 178 183 185 188 191 194 195 194 193 190 191 195 197 199 200 202 205 207 208 210 210 209 208 207 208 209 209 209 209 208 208 209 209 209 210 211 210 210 211 211 210 210 210 211 211 212 212 212 214 215 214 213 212 212 214 217 218 218 216 215 216 219 220 219 218 220 222 224 226 228 228 228 229 228 227 228 228
167 170 167 170 173 175 176 176 178 182 183 186 190 194 198 200 198 194 192 194 197 199 201 202 204 206 207 208 209 209 208 208 208 208 209 209 208 208 208 208 208 209 209 210 211 210 211 212 212 212 212 213 213 213 213 214 214 214 215 215 214 214 214 216 219 220 219 218 218 219 221 220 219 219 220 221 223 224 224 225 227 228 227 226 227
163 165 165 167 169 173 175 173 177 181 182 184 187 192 197 199 198 195 193 194 196 199 202 203 204 205 206 208 208 208 208 208 208 208 208 208 208 208 208 208 208 208 208 209 210 211 212 213 214 214 214 215 214 214 215 214 214 214 215 215 215 215 215 216 218 220 221 221 221 221 222 222 221 220 220 220 221 222 222 223 224 226 226 224 223
159 161 164 166 167 170 173 173 176 180 183 187 189 193 196 196 195 194 195 195 196 198 201 203 204 205 206 208 208 208 209 208 208 207 208 208 208 208 208 208 208 208 209 210 210 212 213 214 215 216 216 216 216 215 215 214 214 214 215 216 216 216 216 216 218 220 222 222 223 223 223 223 224 224 223 222 221 222 222 222 223 224 224 221 220
154 158 161 163 163 167 172 175 177 180 184 190 193 194 194 193 193 194 196 197 196 197 199 202 203 204 206 208 208 208 208 208 207 207 207 208 208 208 208 208 208 208 210 211 211 213 214 214 215 217 217 217 217 216 216 215 215 214 215 216 216 217 217 217 218 220 222 223 224 224 225 225 226 227 227 226 225 224 224 223 222 221 221 221 219
149 154 161 163 165 169 172 174 176 182 188 192 193 192 192 192 192 194 196 198 197 197 198 200 202 204 205 207 208 208 208 207 207 207 207 208 208 208 208 208 209 210 211 212 213 214 215 215 216 216 217 217 218 218 218 217 216 215 215 216 216 217 218 219 219 220 221 223 224 225 226 227 228 228 229 229 228 228 228 227 226 222 220 220 219
141 150 156 159 164 168 171 176 179 185 191 191 189 188 189 191 193 195 197 198 198 198 198 200 202 203 204 205 206 207 207 206 207 207 208 208 207 207 207 208 209 210 211 212 213 214 215 216 216 216 216 217 218 220 219 219 219 218 217 217 217 218 218 219 220 221 222 223 225 226 227 228 229 229 229 230 230 230 230 231 230 228 225 223 220
138 145 150 154 160 165 170 179 183 187 191 191 185 183 188 192 194 196 197 199 201 200 199 200 201 201 202 203 204 205 206 206 207 207 208 208 208 207 207 208 208 209 210 211 213 214 215 215 216 216 217 218 219 221 220 220 220 220 220 219 219 219 219 220 221 222 223 224 224 226 227 228 229 229 229 230 231 232 232 233 233 232 231 230 227
127 136 145 149 151 157 166 175 182 186 190 191 186 182 186 192 195 197 197 200 203 204 200 200 201 201 201 202 202 203 205 206 207 208 209 208 208 208 208 208 208 209 209 211 213 214 215 215 215 215 217 219 221 221 221 221 222 222 222 221 221 221 221 221 222 223 224 224 225 225 226 228 229 230 229 229 230 231 232 233 234 235 234 234 233
104 114 137 147 144 142 148 157 170 180 184 188 189 188 189 192 195 197 198 200 204 205 203 201 201 201 200 200 201 202 204 205 207 207 208 208 208 208 209 209 209 209 210 211 213 214 215 216 216 216 217 219 221 222 222 222 222 223 223 222 222 223 224 224 224 225 225 225 225 225 226 227 229 230 229 228 228 229 230 230 231 233 234 235 234
82 73 77 98 104 104 111 125 153 178 188 189 192 193 193 194 195 197 200 202 203 206 205 202 201 201 200 199 200 201 202 204 206 206 206 207 208 209 210 210 210 211 211 212 213 215 216 217 218 218 219 220 222 223 223 223 223 223 223 223 223 224 225 227 228 228 228 228 228 227 228 229 229 230 230 229 227 227 227 227 228 229 231 233 233
64 59 58 68 75 76 78 79 82 124 192 200 201 199 196 198 200 201 203 204 204 206 206 202 200 201 201 198 198 199 200 203 204 204 205 207 208 210 210 210 211 213 214 214 215 216 218 219 219 220 222 224 224 224 224 224 224 224 223 223 223 225 227 229 231 232 232 232 231 230 230 231 231 232 232 231 229 227 225 225 226 227 229 231 232
53 47 43 46 54 59 59 55 48 42 47 200 210 206 202 202 204 207 210 209 207 208 208 203 200 201 201 199 198 198 199 201 202 202 205 207 208 210 211 211 212 213 215 216 217 219 220 220 221 221 223 226 228 227 227 227 226 224 223 222 222 224 227 230 233 234 235 236 235 234 233 233 234 234 234 233 232 228 226 225 226 227 228 229 232
53 49 39 28 31 45 48 41 28 15 10 7 342 242 217 210 208 209 212 215 216 214 211 206 201 200 201 200 199 198 198 199 200 202 205 206 208 210 211 211 212 214 216 218 220 221 222 223 223 224 225 228 230 231 231 231 228 225 223 222 222 223 227 231 234 236 237 239 239 238 236 236 236 237 236 235 233 230 228 227 226 226 227 229 233
49 50 35 19 25 38 42 45 39 20 7 3 360 346 284 230 217 210 209 213 220 221 217 211 205 201 200 200 199 199 199 199 201 203 205 206 207 209 210 212 213 216 219 221 222 224 225 226 226 228 229 231 232 234 234 235 233 228 225 223 221 222 226 229 232 236 238 240 241 241 240 239 239 239 238 237 236 233 231 230 228 227 227 230 233
43 42 28 21 26 28 32 44 41 24 13 10 6 1 350 309 245 220 212 213 218 220 220 218 212 204 200 200 199 199 199 200 202 203 204 205 206 207 208 210 213 216 219 221 223 225 227 228 229 230 231 232 233 234 235 237 238 234 229 225 222 222 225 228 230 233 237 239 241 242 243 243 242 242 240 239 238 236 234 233 230 228 230 233 235
43 43 27 17 17 20 31 42 35 19 9 3 359 357 351 340 315 263 239 230 224 219 217 216 214 207 201 199 199 199 200 201 202 202 203 204 204 204 205 207 210 213 217 220 223 225 228 230 230 231 232 234 235 236 237 237 238 238 235 229 225 225 226 227 229 233 236 238 241 242 245 246 246 245 244 242 241 240 238 236 234 233 235 238 238
41 41 25 12 11 20 32 36 26 14 3 355 353 350 339 333 334 326 314 309 257 223 213 211 210 206 201 198 198 198 199 199 200 200 199 199 201 202 203 205 207 210 214 218 221 225 229 231 233 233 234 235 236 237 238 239 239 239 238 236 234 232 231 229 230 234 237 239 242 243 246 248 249 248 248 246 244 243 241 239 239 240 241 241 239
40 34 19 8 4 14 29 28 17 10 3 354 349 341 331 332 355 3 355 352 318 231 211 206 204 203 200 198 196 196 196 196 196 197 196 195 197 199 201 203 206 208 212 216 219 223 227 231 233 233 234 236 237 238 239 240 241 241 241 240 241 241 238 233 231 235 239 241 243 245 247 249 250 250 251 250 249 247 245 244 244 244 244 243 242
37 26 13 4 355 2 27 32 22 18 13 2 354 349 347 356 8 8 8 19 8 252 211 203 199 199 198 195 194 193 193 193 193 192 191 192 194 196 199 203 206 208 211 214 217 220 223 228 231 232 232 233 235 236 237 239 241 241 242 242 242 243 243 239 237 239 242 243 244 246 248 250 251 252 253 253 252 250 249 249 249 249 247 245 242
28 20 9 360 352 360 21 31 26 23 19 11 8 10 11 6 2 2 6 14 17 350 210 202 197 195 193 190 189 188 188 189 189 187 188 191 193 195 198 201 204 206 209 212 214 215 218 222 225 227 229 229 231 234 236 237 239 240 240 241 241 242 242 240 238 239 241 242 244 247 250 251 253 254 254 254 253 251 252 252 253 252 250 245 241
15 14 4 357 355 4 22 31 22 13 10 9 9 12 11 5 4 7 5 3 15 54 179 190 190 189 186 182 180 180 181 183 184 186 189 193 194 195 197 200 202 204 208 210 211 211 214 217 218 220 223 225 228 231 232 232 234 236 238 239 240 241 240 238 237 236 237 238 241 245 249 251 254 256 256 255 254 253 254 254 253 253 250 245 242
348 357 354 350 352 4 25 31 17 8 8 10 12 14 10 7 8 10 9 7 16 60 140 162 168 171 173 173 171 172 174 177 180 186 191 194 195 197 198 199 201 203 205 207 208 207 207 208 210 213 217 219 218 212 208 212 222 232 237 241 244 247 247 246 246 246 245 246 246 247 250 252 256 259 261 260 260 259 258 256 254 252 250 247 244
327 338 344 347 350 360 21 25 15 16 18 16 19 20 13 8 8 8 10 16 17 39 102 140 152 154 157 164 168 168 171 176 179 183 188 192 195 198 198 199 201 203 202 202 203 204 204 204 206 210 209 202 188 178 173 169 180 196 205 221 244 256 257 257 259 259 258 258 257 257 257 258 259 259 260 261 261 262 261 260 258 256 253 250 247
323 330 338 359 5 7 21 24 17 23 24 14 15 18 11 8 8 4 5 16 24 19 72 127 148 152 156 161 165 169 173 173 167 157 155 169 185 192 193 193 199 203 204 204 203 202 202 197 190 190 189 175 155 147 148 139 133 128 100 32 316 301 283 269 267 265 264 263 262 262 262 262 261 260 260 260 261 262 263 262 261 259 256 253 249
317 325 340 13 15 9 15 15 12 25 29 20 16 14 6 4 7 4 2 10 40 92 93 118 138 160 172 170 167 171 170 160 149 140 129 122 127 148 161 162 171 187 197 202 200 191 183 177 158 137 140 148 139 127 118 109 99 85 62 12 319 301 289 280 275 272 270 269 270 271 272 272 271 270 269 268 268 268 268 266 265 263 259 256 252
308 309 325 356 358 9 19 11 13 27 31 25 18 7 357 358 4 7 5 9 61 90 89 90 94 130 169 174 173 168 153 143 140 138 130 117 103 100 106 109 113 129 147 157 158 148 141 149 146 126 113 111 109 103 100 93 84 76 67 46 357 324 312 308 303 294 286 285 288 289 289 289 287 284 281 278 278 278 276 273 271 269 264 260 256
Height
751 753 755 757 760 762 766 769 773 776 779 782 784 788 791 793 796 798 801 804 807 809 812 814 816 819 821 822 824 826 828 829 831 832 833 834 834 835 836 838 839 840 842 843 845 846 847 848 849 850 851 851 852 853 854 855 855 856 857 858 858 859 860 860 860 862 862 862 862 862 863 863 863 864 864 864 864 864 864 865 866 867 868 869 869
748 751 752 755 757 760 763 766 769 772 775 778 781 785 788 791 794 796 799 802 804 806 808 811 813 816 818 820 822 824 826 828 829 831 832 833 833 834 835 836 838 839 841 842 844 845 846 848 848 849 850 851 852 852 853 855 855 856 856 857 858 859 859 860 860 861 861 861 861 862 863 863 863 863 864 864 864 864 864 864 865 866 868 868 869
747 749 750 751 754 757 760 762 765 768 772 775 778 782 785 789 791 794 796 799 802 804 806 809 811 814 817 819 821 823 825 827 828 829 831 832 832 833 834 835 837 838 840 841 842 844 845 846 847 848 849 850 851 851 852 854 855 855 856 856 857 858 859 859 860 860 860 861 862 864 864 864 865 863 863 864 864 864 864 864 865 866 867 868 868
746 746 747 747 750 753 756 759 762 765 769 773 776 779 782 785 789 791 794 796 799 802 805 807 810 813 817 819 820 822 824 826 827 829 830 830 831 832 833 834 835 837 838 840 841 843 844 845 846 847 848 849 850 850 851 852 853 854 855 856 857 857 858 858 859 860 860 861 862 864 864 866 868 865 862 863 863 864 864 864 864 865 866 867 867
740 743 744 744 746 749 752 756 759 762 766 768 771 775 778 782 785 788 791 794 796 800 803 806 809 812 816 818 820 821 823 825 826 827 827 828 829 830 831 832 834 835 837 838 840 841 842 844 845 846 847 848 849 849 850 851 852 853 854 855 856 856 857 857 858 859 859 860 860 862 864 867 867 862 862 863 863 863 865 864 864 865 865 866 867
733 735 738 741 743 746 749 753 756 759 761 765 768 771 775 779 782 786 789 791 794 797 801 804 807 810 812 815 816 817 819 820 821 823 824 826 827 828 829 831 832 834 835 837 838 839 841 842 843 844 845 847 848 848 849 850 851 852 853 854 855 855 856 857 857 858 859 859 859 859 861 863 861 860 863 864 862 862 864 864 864 864 865 866 866
731 732 733 736 739 742 746 749 752 755 758 762 766 769 773 777 780 783 786 789 792 795 798 801 804 806 809 810 812 814 815 816 818 820 822 824 826 826 828 829 831 832 833 835 836 838 839 840 841 843 844 845 846 847 848 849 849 851 852 853 854 854 855 856 856 857 857 858 858 858 858 858 858 859 861 863 864 864 863 864 864 864 864 865 866
728 731 731 733 735 737 741 744 747 751 756 760 764 767 770 774 777 780 783 786 789 792 795 798 801 803 806 808 810 811 813 814 817 819 821 823 824 825 826 827 829 830 831 833 834 836 837 839 840 841 842 843 845 846 847 848 848 850 851 852 853 853 854 855 856 856 856 856 856 857 858 858 858 858 858 860 863 865 865 864 864 864 865 865 865
722 725 727 728 730 733 737 741 745 749 753 757 761 765 768 771 775 778 781 784 786 789 792 795 798 800 803 805 807 809 811 813 815 817 819 821 823 824 824 825 827 828 830 831 832 834 835 837 838 839 840 841 843 844 845 847 847 849 850 851 851 852 853 854 855 855 855 855 855 856 857 857 857 858 858 858 859 863 865 864 864 865 865 865 865
717 719 721 723 726 730 734 739 743 747 750 754 758 763 767 770 773 776 778 781 783 786 789 792 795 797 800 802 804 807 809 811 813 815 817 819 820 822 822 823 824 826 827 829 830 832 834 835 836 838 839 840 841 843 844 845 846 847 848 849 850 851 852 853 853 854 854 854 854 855 856 856 857 857 858 858 858 860 862 863 863 863 864 864 864
713 715 718 720 723 727 732 736 740 744 748 752 756 760 764 768 771 773 776 778 781 783 786 788 791 794 796 798 801 804 806 809 811 812 814 816 817 818 820 821 822 823 825 827 829 830 832 833 835 836 837 838 840 841 842 844 845 846 847 848 849 850 850 851 852 853 853 853 853 854 855 855 856 857 857 858 858 858 859 861 861 862 862 863 863
709 713 716 719 723 726 729 733 737 742 745 748 752 756 760 764 768 771 774 776 778 780 783 785 788 791 793 795 798 800 803 805 807 809 810 812 814 815 817 819 820 822 823 825 826 828 830 831 833 834 836 837 838 839 841 842 843 845 846 846 847 848 849 850 851 852 852 852 852 853 854 854 855 856 856 857 857 857 858 859 860 861 862 862 862
705 709 713 716 720 721 724 729 733 737 740 743 747 751 755 760 764 767 770 773 776 777 780 782 785 787 790 792 795 798 800 802 804 806 807 809 811 813 814 816 817 819 821 822 824 826 827 829 830 832 833 835 836 838 839 840 842 843 844 845 846 847 848 849 850 851 851 851 852 852 853 853 854 855 856 856 857 857 857 858 859 860 861 861 862
699 703 708 711 714 716 719 724 728 732 736 739 743 746 750 755 759 763 766 769 772 774 776 779 781 783 786 789 792 794 797 799 801 803 804 806 808 810 811 813 814 816 817 819 821 823 825 826 828 830 831 833 834 836 837 839 840 841 842 843 844 845 846 848 848 849 850 850 851 851 852 852 853 854 855 855 856 856 857 858 858 859 860 860 861
694 698 702 705 708 711 714 719 724 728 732 736 740 743 746 750 754 758 761 765 769 772 773 775 777 780 783 786 789 791 793 796 798 800 802 804 805 807 809 810 812 813 815 817 819 821 823 824 826 828 830 831 833 834 835 837 838 839 840 841 842 843 844 846 847 848 849 849 850 850 851 851 852 853 854 854 855 855 856 856 857 859 861 861 860
690 694 698 701 703 707 710 715 719 723 728 733 736 739 742 745 749 754 758 761 765 768 770 771 774 777 779 783 785 788 791 793 795 797 799 801 803 804 806 808 810 811 813 815 817 819 821 822 824 826 828 829 831 832 834 835 836 837 838 839 840 841 842 843 845 846 847 848 848 849 850 850 851 852 853 853 854 854 855 855 855 856 860 862 862
685 689 693 697 699 703 706 710 714 719 723 727 730 734 737 741 746 751 756 759 762 765 767 769 771 773 776 779 782 785 788 790 792 794 796 798 800 802 804 806 808 810 812 814 815 817 819 820 822 823 825 827 829 830 832 833 834 835 836 837 838 839 840 841 842 844 845 846 847 847 848 849 849 850 851 852 852 853 853 854 854 854 856 859 861
680 683 688 692 695 699 702 705 709 712 716 720 725 731 735 739 743 748 752 756 759 763 765 767 768 770 772 775 778 781 783 786 788 790 793 795 797 799 801 804 806 808 810 812 814 815 817 818 819 821 822 824 826 828 830 831 833 834 835 836 836 837 838 839 840 842 843 844 844 845 846 847 847 848 850 850 851 851 851 852 853 853 853 855 857
679 682 686 689 691 695 697 701 705 708 712 717 723 728 733 737 740 744 748 751 756 760 764 767 768 769 770 771 774 776 779 782 785 788 790 792 794 796 799 801 803 805 807 809 811 813 814 816 817 818 820 822 824 825 827 829 830 831 832 834 835 836 836 837 839 840 841 842 842 843 844 844 845 846 847 849 849 849 850 850 851 851 852 852 853
676 679 683 685 687 690 693 697 701 705 711 715 720 724 727 732 736 740 744 748 753 758 761 765 767 768 769 769 770 773 775 779 781 785 787 789 791 793 795 797 800 802 804 806 808 810 812 813 814 816 817 819 821 822 824 826 827 829 830 831 832 833 834 835 837 838 839 840 840 841 841 842 843 845 845 846 847 848 848 848 849 849 850 851 851
671 674 677 680 683 685 688 694 698 703 708 712 715 719 722 727 730 734 738 743 748 753 757 761 764 766 767 768 769 771 773 776 778 781 783 785 788 790 792 795 797 799 801 803 805 806 808 810 811 813 814 816 817 819 821 822 824 825 826 828 829 831 832 833 834 835 836 837 838 838 839 840 841 842 843 844 845 846 846 846 847 847 848 849 849
665 667 672 676 679 682 685 690 695 699 703 707 711 715 718 722 724 728 732 737 742 748 752 756 760 763 764 765 768 769 771 774 776 778 780 782 784 787 789 792 794 796 797 799 801 802 804 807 808 810 811 812 814 815 817 819 820 822 823 825 826 827 829 830 831 832 833 834 835 836 837 838 839 840 841 842 843 843 844 844 845 845 845 846 847
660 662 667 671 674 678 683 687 692 695 699 703 706 710 714 717 720 723 727 732 737 743 747 752 756 759 761 763 765 767 769 772 773 775 776 778 781 783 786 788 790 792 794 796 798 800 802 803 805 807 808 809 811 812 814 815 816 818 819 821 822 823 825 826 827 829 830 831 832 833 834 835 837 837 838 839 840 841 841 842 842 843 843 844 844
657 660 663 667 671 676 681 685 689 692 696 699 703 706 710 713 716 719 722 727 732 738 743 748 751 754 757 760 762 763 766 768 770 772 773 775 778 780 783 785 787 789 791 792 795 797 799 800 801 803 804 805 807 808 809 811 812 813 815 817 818 820 821 822 823 824 826 827 828 829 830 832 833 834 835 836 837 838 838 839 839 840 841 841 842
657 659 662 666 670 675 679 682 685 688 692 696 700 704 707 710 713 715 718 723 729 734 739 742 746 750 753 756 758 760 762 764 766 768 770 772 775 777 779 781 783 785 787 789 791 794 795 797 798 799 800 801 802 804 805 806 808 809 811 813 814 816 817 818 820 821 822 823 824 825 826 827 829 830 831 832 833 834 835 835 836 837 837 839 840
655 657 662 665 668 672 675 677 681 684 688 692 697 701 705 708 710 713 716 720 725 730 734 738 741 744 748 750 753 755 757 759 761 763 766 769 771 773 775 777 779 781 783 786 788 789 791 792 793 794 795 797 798 800 800 802 804 805 807 809 810 812 813 815 816 817 818 819 820 820 822 823 824 825 826 827 828 829 831 831 832 833 834 835 837
650 654 660 664 667 669 671 674 678 681 685 689 693 697 701 704 707 710 713 717 722 727 730 733 736 739 742 745 747 749 752 754 756 759 762 764 766 769 770 772 775 777 780 781 783 785 786 787 789 790 791 793 794 795 797 798 800 802 804 805 807 808 810 811 812 813 814 815 816 817 817 818 819 820 821 822 823 825 826 827 828 829 831 832 834
648 653 658 662 665 668 669 672 675 678 683 687 690 694 697 699 702 705 710 713 717 722 726 729 732 735 737 739 742 745 747 749 752 755 758 760 762 764 766 768 771 773 775 777 778 780 781 783 785 786 787 789 790 792 793 795 797 799 800 801 803 804 806 807 808 809 810 811 812 812 813 813 814 814 816 817 819 820 822 823 825 827 828 829 830
651 654 657 660 664 666 668 671 673 676 681 684 687 690 692 695 698 701 705 709 712 717 721 724 727 729 732 735 738 741 743 746 749 751 753 755 757 760 762 764 767 768 770 772 774 776 777 778 780 782 783 785 786 787 789 791 793 794 796 797 799 800 801 802 804 805 806 806 807 808 808 808 809 810 811 813 815 817 818 819 821 823 825 826 826
653 655 657 659 662 664 667 670 672 675 679 681 684 686 689 691 694 697 701 704 708 712 715 718 721 724 727 731 734 737 739 742 745 746 748 750 753 756 758 760 762 764 766 768 770 772 773 774 776 777 779 781 782 783 784 786 788 789 792 793 794 796 797 798 799 800 801 802 802 803 803 804 805 806 808 810 811 813 814 815 817 819 820 821 822
654 656 658 659 661 664 666 669 671 673 675 678 680 683 686 688 691 694 697 701 704 707 710 713 716 720 723 726 729 733 735 738 740 742 744 746 749 751 753 756 758 760 762 764 766 767 768 770 771 773 775 776 777 778 780 782 784 786 788 789 790 791 792 793 795 796 796 797 798 799 799 800 802 803 805 806 807 809 810 812 814 815 816 817 817
654 657 658 660 661 663 665 666 668 670 673 675 677 680 683 685 688 691 694 698 701 703 705 709 712 715 719 721 725 728 730 733 735 737 739 742 745 747 749 752 753 755 758 759 761 762 763 765 767 768 770 771 771 773 775 777 780 781 784 785 786 787 788 789 790 791 792 793 794 795 796 797 798 799 801 802 804 805 807 809 811 812 812 812 812
654 656 657 659 659 660 662 663 665 667 670 672 674 677 680 682 685 689 691 695 697 699 702 704 707 711 713 716 720 723 725 728 730 733 736 738 741 743 745 747 749 751 753 754 756 757 759 761 762 763 765 765 766 768 770 773 775 776 779 781 782 783 784 785 786 786 787 788 790 791 793 794 795 796 797 799 800 802 805 807 808 809 809 809 809
653 654 655 656 657 658 660 661 664 666 669 671 673 675 677 680 683 686 688 691 693 695 698 700 703 706 708 712 716 718 721 724 726 729 732 734 737 739 741 743 745 747 749 750 751 753 755 757 758 759 760 760 761 763 765 767 769 772 774 777 778 779 780 781 782 782 783 784 786 788 789 790 791 792 792 794 796 798 801 802 804 804 804 804 805
655 655 656 656 657 658 660 662 664 666 668 670 672 674 676 678 680 683 685 687 689 692 694 696 698 701 704 707 710 713 716 719 722 725 728 730 732 734 737 739 741 742 744 745 747 749 750 752 753 754 755 755 756 758 760 762 764 767 770 773 774 776 777 778 779 779 780 781 783 784 785 786 786 787 788 790 792 794 796 797 797 797 797 798 798
659 660 659 658 659 660 662 663 664 666 668 669 670 672 674 676 678 680 682 684 686 688 689 691 693 696 699 701 704 708 712 715 719 722 724 726 728 730 732 735 737 739 740 742 743 744 746 747 749 751 751 751 752 754 756 758 760 763 767 769 771 773 774 775 775 776 777 778 780 781 781 782 782 782 784 786 788 790 791 791 791 790 791 792 791
660 661 661 660 661 662 662 663 664 666 668 669 670 671 672 674 676 678 679 681 683 684 685 687 689 691 694 697 700 704 707 711 714 717 719 721 723 726 728 731 733 735 737 738 739 740 742 743 745 746 747 747 749 751 753 754 757 760 764 766 768 770 771 771 772 773 775 776 776 777 778 778 778 779 781 782 784 786 786 785 785 785 787 786 784
662 663 663 664 664 663 663 664 664 666 668 669 671 672 672 673 674 675 677 679 680 680 681 683 685 687 691 694 697 700 703 706 709 711 714 717 719 722 725 727 730 731 732 734 736 737 739 740 741 742 743 744 746 748 750 752 754 758 760 763 765 767 767 767 768 770 772 772 772 772 773 774 774 775 777 779 780 782 781 781 781 782 782 780 777
663 665 666 667 667 666 665 666 666 667 668 669 671 672 672 673 672 673 675 675 676 677 679 681 682 685 688 691 693 696 699 702 704 707 710 713 716 719 722 725 727 728 730 732 734 735 736 737 738 739 740 741 743 745 748 749 752 755 757 759 762 763 762 763 765 767 767 767 767 767 768 769 769 771 774 775 776 777 776 776 777 778 776 772 772
665 666 667 667 667 667 667 668 669 669 669 669 670 671 672 672 672 672 672 672 672 674 677 679 681 682 685 687 690 693 696 698 701 704 707 710 713 716 719 721 724 726 728 730 732 733 733 734 735 737 738 739 741 743 745 747 749 752 754 756 758 757 757 759 762 762 761 761 761 762 763 765 766 768 770 771 771 771 771 772 773 772 768 765 768
669 669 669 669 669 669 670 671 672 672 671 671 671 671 672 672 671 671 671 671 671 672 674 677 678 680 682 684 686 689 692 695 698 701 704 707 710 712 715 718 720 723 725 727 729 730 730 731 733 734 735 737 738 740 742 744 747 749 751 753 753 752 753 756 757 756 756 755 756 759 761 762 764 765 766 766 766 765 766 767 766 763 760 761 765
673 673 674 674 673 673 673 674 674 674 674 673 673 672 672 671 671 670 670 670 669 670 671 673 675 677 679 681 684 687 690 693 696 699 702 704 707 710 712 715 718 720 722 724 725 726 728 729 730 731 733 734 736 738 739 741 744 745 747 748 747 747 749 752 752 752 751 752 754 756 758 758 759 759 760 761 760 761 762 761 759 757 758 759 762
677 678 678 678 677 677 676 677 677 677 676 675 674 673 672 671 671 670 669 668 667 667 668 669 671 673 675 678 681 684 687 690 693 696 699 701 704 707 710 712 714 717 718 720 722 723 725 726 727 729 730 731 733 735 736 738 740 741 742 742 743 744 746 748 748 747 747 749 751 753 753 754 754 755 755 755 756 756 756 755 754 755 756 757 759
681 682 682 681 681 680 679 679 679 678 678 678 676 675 673 672 672 670 669 668 666 666 666 667 668 670 672 675 678 681 684 687 690 693 696 699 702 704 707 709 711 713 715 717 718 720 722 723 725 726 727 729 730 732 733 735 736 736 737 738 739 741 742 743 743 743 744 746 747 748 749 749 749 750 750 750 750 750 750 750 750 751 752 754 754
685 686 685 684 683 682 681 681 680 680 680 679 678 677 675 673 672 671 669 668 667 666 666 666 668 669 671 673 676 679 682 684 687 690 693 696 699 702 704 707 708 710 712 713 715 717 719 720 722 723 725 727 728 729 731 731 731 732 732 734 735 736 737 739 739 739 740 742 743 744 745 745 745 745 745 744 744 745 745 745 745 745 747 747 745
688 688 687 686 685 683 683 682 681 681 681 680 679 678 676 675 673 671 670 669 668 667 666 667 668 669 671 673 675 678 681 683 686 689 691 694 697 699 702 704 705 707 709 711 713 715 716 718 720 721 722 724 726 727 728 727 727 728 729 731 732 732 733 734 735 735 737 739 740 741 741 742 742 742 742 741 741 740 740 740 740 739 740 739 737
690 689 688 687 686 685 684 683 683 682 681 681 680 679 677 676 674 672 670 669 668 668 667 667 668 670 671 673 675 677 680 683 685 688 690 693 695 697 699 701 703 705 706 708 711 712 714 716 717 718 720 722 723 724 724 725 726 726 727 729 729 730 731 732 733 734 735 736 737 737 738 739 739 739 739 738 737 736 736 735 734 734 733 731 730
691 690 689 688 687 686 685 684 684 683 682 682 681 679 678 676 674 673 671 670 669 669 668 668 669 670 671 673 675 677 680 682 685 687 689 691 693 695 697 698 700 702 704 706 709 710 712 713 714 716 718 720 721 722 722 724 725 725 726 727 728 729 730 731 732 733 733 734 734 735 735 736 736 736 735 734 732 731 730 729 728 727 726 725 724
691 690 689 688 687 686 685 685 685 684 683 682 681 680 679 677 675 674 672 670 670 669 669 670 670 671 672 673 675 678 679 681 684 686 688 690 692 693 695 697 699 701 703 705 707 709 711 712 713 714 716 717 719 721 722 723 724 725 726 727 728 729 729 730 730 731 731 732 732 731 731 732 731 731 730 729 727 726 725 724 723 721 720 719 719
692 691 689 688 687 687 686 686 685 684 684 683 682 680 679 678 676 674 672 671 670 669 670 670 671 671 672 673 675 677 679 680 683 685 687 690 692 694 695 697 698 700 702 704 706 708 710 711 712 714 716 717 719 721 722 723 724 725 726 727 727 728 728 728 729 729 729 730 729 729 729 729 729 729 728 726 725 724 723 721 719 717 716 715 714
692 690 689 688 688 687 687 686 686 685 685 684 682 681 680 679 677 675 674 672 671 670 670 671 671 672 673 673 675 677 678 680 682 684 686 689 692 695 697 698 700 701 702 703 705 708 710 711 712 714 716 718 719 721 722 723 724 724 725 726 726 727 727 727 727 727 727 728 728 729 729 729 728 728 727 725 724 722 721 718 716 714 712 711 709